Home > Weather > Leonding > Past weeks

Flag for Austria Past Weather in Leonding, Upper Austria, Austria — Yesterday and Last 2 Weeks

Now
70 °F

Broken clouds.


Feels Like: 70 °F
Forecast: 65 / 79 °F
Wind: 5 mph from West

Location: Linz / Hoersching-Flughafen

Current Time: Jul 26, 2016 at 8:42:47 AM

Latest Report: Jul 26, 2016 at 7:50 AM


Visibility: N/A

Pressure: 30.09 "Hg

Humidity: 88%

Dew Point: 66 °F

Location of LeondingLocation

Past Weather in Leonding — Graph

°F

Leonding Temperature Yesterday

Maximum temperature yesterday: 82 °F (at 2:20 PM)
Minimum temperature yesterday: 64 °F (at 3:50 AM)
Average temperature yesterday: 71 °F

High & Low Weather Summary for the Past Weeks

 TemperatureHumidityPressure
High91 °F (Jul 11, 3:20 PM)100% (Jul 14, 4:50 AM)30.30 "Hg (Jul 14, 4:50 AM)
Low52 °F (Jul 14, 4:50 AM)33% (Jul 20, 5:20 PM)29.83 "Hg (Jul 11, 7:20 PM)
Average68 °F76%30.07 "Hg
* Reported Jul 11 6:20 AM — Jul 26 6:50 AM, Leonding, Weather by CustomWeather, © 2016

Note: Actual official high and low records may vary slightly from our data, if they occured in-between our weather recording intervals... More about our weather records

Advertising

Leonding Weather History for the Previous 24 Hours

Scroll right to see more
 ConditionsComfort  
Time TempWeatherWind HumidityBarometerVisibility
6:50 AM
Tue, Jul 26
68 °FBroken clouds.5 mph88%30.09 "HgN/A
6:20 AM66 °FPartly cloudy.3 mph94%30.09 "HgN/A
5:50 AM64 °FPartly cloudy.5 mph100%30.09 "HgN/A
5:20 AM64 °FPassing clouds.1 mph94%30.09 "Hg5 mi
4:50 AM64 °FPassing clouds.3 mph94%30.09 "Hg5 mi
4:20 AM64 °FPassing clouds.5 mph94%30.09 "HgN/A
3:50 AM64 °FPartly cloudy.3 mph94%30.09 "HgN/A
3:20 AM64 °FPassing clouds.5 mph100%30.09 "HgN/A
2:50 AM64 °FMild.2 mph94%30.09 "Hg6 mi
2:20 AM64 °FPassing clouds.5 mph94%30.09 "HgN/A
1:50 AM66 °FPassing clouds.5 mph88%30.09 "HgN/A
1:20 AM66 °FPassing clouds.6 mph94%30.09 "HgN/A
12:50 AM66 °FPassing clouds.5 mph88%30.09 "HgN/A
12:20 AM66 °FPassing clouds.6 mph94%30.09 "HgN/A
11:50 PM
Mon, Jul 25
68 °FPassing clouds.9 mph88%30.09 "HgN/A
11:20 PM68 °FMild.8 mph88%30.09 "HgN/A
10:50 PM70 °FPassing clouds.8 mph83%30.09 "HgN/A
10:20 PM70 °FPassing clouds.5 mph83%30.09 "HgN/A
9:50 PM70 °FPassing clouds.6 mph83%30.09 "HgN/A
9:20 PM70 °FScattered clouds.8 mph88%30.09 "HgN/A
8:50 PM72 °FPartly sunny.3 mph83%30.07 "HgN/A
8:20 PM72 °FPartly sunny.3 mph88%30.07 "HgN/A
7:50 PM73 °FPartly sunny.3 mph78%30.07 "HgN/A
7:20 PM73 °FPartly sunny.7 mph78%30.07 "HgN/A
6:50 PM73 °FBroken clouds.5 mph78%30.07 "HgN/A
6:20 PM73 °FPartly sunny.1 mph83%30.07 "HgN/A
5:50 PM72 °FPartly sunny.1 mph83%30.07 "HgN/A
5:20 PM72 °FThundershowers. Partly sunny.3 mph83%30.07 "HgN/A
4:50 PM70 °FBroken clouds.7 mph88%30.07 "HgN/A
4:20 PM73 °FStrong thunderstorms. Broken clouds.6 mph69%30.09 "HgN/A
3:50 PM73 °FThundershowers. Partly sunny.8 mph74%30.04 "HgN/A
3:20 PM73 °FThunderstorms. Partly sunny.16 mph74%30.04 "HgN/A
2:50 PM79 °FThunderstorms. Partly sunny.15 mph54%30.04 "HgN/A
2:20 PM82 °FScattered clouds.7 mph51%30.04 "HgN/A
1:50 PM81 °FScattered clouds.8 mph58%30.04 "HgN/A
1:20 PM81 °FScattered clouds.8 mph58%30.04 "HgN/A
12:50 PM79 °FScattered clouds.7 mph65%30.04 "HgN/A
12:20 PM79 °FScattered clouds.7 mph61%30.07 "HgN/A
11:50 AM77 °FScattered clouds.5 mph74%30.07 "HgN/A
11:20 AM75 °FScattered clouds.8 mph69%30.07 "HgN/A
10:50 AM73 °FPartly sunny.8 mph74%30.07 "HgN/A
10:20 AM75 °FPartly sunny.8 mph74%30.07 "HgN/A
9:50 AM75 °FPartly sunny.6 mph74%30.07 "HgN/A
9:20 AM72 °FPartly sunny.3 mph83%30.07 "HgN/A
8:50 AM72 °FPartly sunny.5 mph83%30.07 "HgN/A
8:20 AM70 °FScattered clouds.3 mph83%30.07 "HgN/A
Weather by CustomWeather, © 2016

See weather overviewHow to use our weather pages